Location: *
(38.3914°N, 75.0697°W)
Time: 06:56:59
(UTC+00:00)

Cosmos 1484 Rocket - Pass Details

Date: 17 February 2020
Orbit: 507 x 559 km, 97.4° (Epoch: 30 March)

Event Time Altitude Azimuth Distance (km) Brightness Sun altitude
Rises 09:58:25 0° 10° (N) 2,715 6.5 -22.3°
Reaches altitude 10° 10:00:32 10° 9° (N) 1,825 5.6 -21.9°
Maximum altitude 10:04:29 81° 283° (WNW) 564 2.6 -21.1°
Enters shadow 10:06:24 30° 199° (SSW) 1,012 3.9 -20.7°
